Fort Polk, LA

7:53 PM CDT on March 22, 2017 (GMT -0500)
Fort Polk

Weather History for KDNK - February, 2013

Change the Weather History Date:

Tuesday, February 26, 2013

  Actual Average (KPOE) Record (KPOE)
Temperature  
Mean Temperature 51 °F -  
Max Temperature 59 °F 62 °F 81 °F (2006)
Min Temperature 43 °F 43 °F 30 °F (2002)
Degree Days  
Heating Degree Days 14    
Growing Degree Days 1 (Base 50)    
Moisture  
Dew Point 33 °F    
Average Humidity 57    
Maximum Humidity 86    
Minimum Humidity 38    
Precipitation  
Precipitation 0.00 in - - ()
Sea Level Pressure  
Sea Level Pressure 29.79 in    
Wind  
Wind Speed 13 mph (West)    
Max Wind Speed 20 mph    
Max Gust Speed 29 mph    
Visibility 10 miles    
Events      
Averages and records for this station are not official NWS values.
T = Trace of Precipitation, MM = Missing Value Source: NWS Daily Summary

Daily Weather History Graph

Daily Weather History Graph

Search for Another Location

Airport or City:

Trip Planner

Search our weather history database for the weather conditions in past years. The results will help you decide how hot, cold, wet, or windy it might be!

Date:

Astronomy

Feb. 26, 2013 Rise Set
Actual Time 6:41 AM CST 6:08 PM CST
Civil Twilight 6:17 AM CST 6:32 PM CST
Nautical Twilight 5:49 AM CST 7:00 PM CST
Astronomical Twilight 5:21 AM CST 7:28 PM CST
Moon 7:16 PM CST (2/26) 6:51 AM CST (2/26)
Length of Visible Light 12h 15m
Length of Day
11h 26m
Full, 99% of the Moon is Illuminated
Feb 26
Full
Mar 4
Last Quarter
Mar 11
New
Mar 19
First Quarter
Mar 27
Full

Hourly Weather History & Observations

Time (CST) Temp. Windchill Dew Point Humidity Pressure Visibility Wind Dir Wind Speed Gust Speed Precip Events Conditions
12:53 AM 46.9 °F - 30.0 °F 52% 29.62 in 10.0 mi West 18.4 mph 25.3 mph N/A   Overcast
1:53 AM 46.0 °F 38.8 °F 30.0 °F 54% 29.64 in 10.0 mi West 18.4 mph 27.6 mph N/A   Overcast
2:53 AM 46.0 °F 40.6 °F 30.0 °F 54% 29.64 in 10.0 mi West 11.5 mph 27.6 mph N/A   Overcast
3:53 AM 45.0 °F 39.3 °F 30.0 °F 56% 29.65 in 10.0 mi WNW 11.5 mph 25.3 mph N/A   Overcast
4:53 AM 45.0 °F 37.9 °F 30.9 °F 58% 29.66 in 10.0 mi West 16.1 mph 24.2 mph N/A   Overcast
5:53 AM 45.0 °F 38.2 °F 30.0 °F 56% 29.68 in 10.0 mi West 15.0 mph 26.5 mph N/A   Overcast
6:53 AM 45.0 °F 38.5 °F 30.9 °F 58% 29.72 in 10.0 mi West 13.8 mph 20.7 mph N/A   Overcast
7:53 AM 45.0 °F 38.2 °F 30.9 °F 58% 29.74 in 10.0 mi West 15.0 mph 26.5 mph N/A   Overcast
8:53 AM 45.0 °F 37.9 °F 30.9 °F 58% 29.78 in 10.0 mi WNW 16.1 mph 27.6 mph N/A   Overcast
9:53 AM 48.0 °F - 32.0 °F 54% 29.80 in 10.0 mi West 19.6 mph 28.8 mph N/A   Mostly Cloudy
10:53 AM 48.9 °F - 32.0 °F 52% 29.82 in 10.0 mi NW 17.3 mph 25.3 mph N/A   Partly Cloudy
11:53 AM 52.0 °F - 33.1 °F 49% 29.82 in 10.0 mi WNW 18.4 mph 26.5 mph N/A   Partly Cloudy
12:53 PM 54.0 °F - 33.1 °F 45% 29.81 in 10.0 mi West 15.0 mph 23.0 mph N/A   Clear
1:53 PM 55.9 °F - 34.0 °F 44% 29.80 in 10.0 mi West 15.0 mph 19.6 mph N/A   Clear
2:53 PM 57.9 °F - 34.0 °F 41% 29.79 in 10.0 mi West 10.4 mph 23.0 mph N/A   Clear
3:53 PM 59.0 °F - 34.0 °F 39% 29.80 in 10.0 mi West 10.4 mph 20.7 mph N/A   Clear
4:53 PM 59.0 °F - 33.1 °F 38% 29.81 in 10.0 mi WNW 9.2 mph - N/A   Clear
5:53 PM 55.9 °F - 34.0 °F 44% 29.83 in 10.0 mi West 5.8 mph - N/A   Clear
6:53 PM 53.1 °F - 35.1 °F 50% 29.86 in 10.0 mi Calm Calm - N/A   Clear
7:53 PM 48.0 °F - 37.0 °F 66% 29.88 in 10.0 mi Calm Calm - N/A   Clear
8:53 PM 45.0 °F - 39.9 °F 82% 29.90 in 10.0 mi Calm Calm - N/A   Clear
9:53 PM 44.1 °F - 37.9 °F 79% 29.92 in 10.0 mi Calm Calm - N/A   Clear
10:53 PM 43.0 °F - 39.0 °F 86% 29.93 in 10.0 mi Calm Calm - N/A   Clear
11:53 PM 43.0 °F - 39.0 °F 86% 29.94 in 10.0 mi Calm Calm - N/A   Clear